Regional Weather Roundup
Issued by NWS

Home | Current Version | Previous Version | Graphics & Text | Print | Product List | Glossary Off
Versions: 1 2 3 4 5 6 7 8 9 10 11 12 13 14 15 16 17 18 19 20 21 22 23 24 25 26 27 28 29 30 31 32 33 34 35 36 37 38 39 40 41 42 43 44 45 46 47 48 49 50

000
ASUS43 KMPX 291210
RWRMN
WEATHER ROUNDUP FOR MINNESOTA
NATIONAL WEATHER SERVICE TWIN CITIES/CHANHASSEN MN
700 AM CDT MON AUG 29 2016


NOTE: "FAIR" INDICATES FEW OR NO CLOUDS BELOW 12,000 FEET WITH NO
SIGNIFICANT WEATHER AND/OR OBSTRUCTIONS TO VISIBILITY. N/A MEANS
CURRENT SKY AND/OR WEATHER CONDITIONS ARE NOT AVAILABLE.

MNZ060>063-068>070-291300-
   Twin Cities Metro

CITY           SKY/WX    TMP DP  RH WIND       PRES   REMARKS
TWIN CITIES    PTCLDY    70  67  90 SE7       30.18R
6HR MIN TEMP:  70; 6HR MAX TEMP:  74;

ST PAUL        CLEAR     67  67 100 S7        30.18R
CRYSTAL        PTCLDY    67  65  93 CALM      30.17R FOG
BLAINE         PTCLDY    70  70 100 CALM      30.18R FOG
LAKEVILLE        N/A     63  63 100 CALM      30.18R FOG
EDEN PRAIRIE   CLEAR     70  66  87 S5        30.17R
6HR MIN TEMP:  69; 6HR MAX TEMP:  74;

LAKEVILLE        N/A     63  63 100 CALM      30.18R FOG
SOUTH ST PAUL    N/A     68  67  98 CALM      30.18R FOG
LAKE ELMO      FOG       64  64 100 CALM      30.20R VSB 1/4
$$
MNZ001>005-007-008-013>017-022>024-027-028-291300-
   Northwest Minnesota

CITY           SKY/WX    TMP DP  RH WIND       PRES   REMARKS
BEMIDJI        CLOUDY    62  61  98 SE3       30.10S
HALLOCK        CLOUDY    66  64  94 NW7       30.08R
ROSEAU         PTCLDY    64  59  82 S8        30.07R
WARROAD        CLOUDY    64  61  88 S3        30.07S
THIEF RVR FALL CLOUDY    66  64  93 E3        30.11R
CROOKSTON      CLOUDY    68  64  88 NE3       30.08F
FOSSTON        CLOUDY    63  61  94 S3        30.10R
DETROIT LAKES  CLOUDY    68  63  83 SE16      30.12S
MOORHEAD       CLOUDY    72  66  83 SE7       30.09R
PARK RAPIDS    CLOUDY    65  61  87 S10       30.11R
MAHNOMEN       CLOUDY    66  60  81 SE8       30.08S
$$
MNZ006-009>011-018-025>026-291300-
   North Central Minnesota

CITY           SKY/WX    TMP DP  RH WIND       PRES   REMARKS
BAUDETTE       CLOUDY    62  61  96 E8        30.10R
FLAG ISLAND    CLOUDY    66  63  88 S7        30.05S
INTL FALLS     CLOUDY    64  61  90 CALM      30.16R
6HR MIN TEMP:  62; 6HR MAX TEMP:  64; 6HR PCP:  0.13;

WASKISH        CLOUDY    64  63  94 S5        30.10R
BIG FORK       CLOUDY    63  61  94 CALM      30.12S
LONGVILLE      CLOUDY    63  63 100 S7        30.12R
GRAND RAPIDS   CLOUDY    61  60  97 S3        30.13S
CRANE LAKE     CLOUDY    59  59 100 S2        30.14R
ORR            CLOUDY    61  57  88 CALM      30.12R
COOK           CLOUDY    61  61 100 CALM      30.15R
WALKER         FAIR      64  62  93 S10G16    30.10R
$$
MNZ012-019>021-037-291300-
   Northeast Minnesota

CITY           SKY/WX    TMP DP  RH WIND       PRES   REMARKS
DULUTH         LGT RAIN  63  62  97 SE6       30.13F
6HR MIN TEMP:  62; 6HR MAX TEMP:  67; 6HR PCP:  0.99;

ELY            CLOUDY    61  61 100 CALM      30.13S
HIBBING        CLOUDY    61  59  93 N3        30.13R
EVELETH        CLOUDY    61  60  96 N5        30.15R
DULUTH HARBOR  LGT RAIN  64  63  94 S16       30.15F
TWO HARBORS    LGT RAIN  64  61  88 S6        30.11F
SILVER BAY     DRIZZLE   63  63 100 CALM      30.11F
GRAND MARAIS     N/A     64  64 100 NE5       30.10F
G MARAIS ARPRT RAIN      61  57  88 E7        30.14F VSB 1/4
$$
MNZ029>031-032-039>041-046>048-054>057-064-291300-
   West Central Minnesota

CITY           SKY/WX    TMP DP  RH WIND       PRES   REMARKS
FERGUS FALLS   CLOUDY    70  68  94 E6        30.11R
WHEATON        CLOUDY    72  70  94 E10       30.10R
MORRIS         CLOUDY    72  64  78 E15G22    30.12R THUNDER
ALEXANDRIA     TSTM      68  66  93 E16G24    30.18R
ELBOW LAKE     FAIR      69  67  92 SE12      30.10R THUNDER
WADENA         CLOUDY    63  63 100 SE14      30.12F
GLENWOOD       TSTM      64  63  94 NE9       30.19R
APPLETON       CLEAR     70  64  83 SE3       30.08R
BENSON         CLOUDY    70  64  83 E6        30.14R
ORTONVILLE     CLEAR     70  66  88 NE12      30.09R
MADISON        CLEAR     68  66  94 S7        30.08R
WILLMAR        FAIR      68  66  94 E7        30.17R
$$
MNZ033>034-036-042>043-049>051-058-059-291300-
   Central Minnesota

CITY           SKY/WX    TMP DP  RH WIND       PRES   REMARKS
ST CLOUD       CLOUDY    69  68  96 E3        30.18R
6HR MIN TEMP:  67; 6HR MAX TEMP:  72;

SAUK CENTRE    TSTM      64  62  91 N12G20    30.21R
PAYNESVILLE    CLOUDY    69  69 100 N7        30.18R
AITKIN         MIX PCPN  66  61  82 SE18      30.12F
PINE RIVER     CLOUDY    63  63 100 S8        30.16S
BRAINERD       LGT RAIN  64  63  96 SE15G23   30.14F
STAPLES        LGT RAIN  63  63 100 SE7G17    30.13F
LONG PRAIRIE   TSTM      63  61  94 NE6       30.20R
LITTLE FALLS   TSTM      63  61  94 E8        30.21R
LITCHFIELD     CLEAR     66  66 100 CALM      30.18S
BUFFALO        CLEAR     65  63  93 SE5       30.18S FOG
MAPLE LAKE     CLEAR     69  69  99 E5        30.19R FOG
HUTCHINSON     CLEAR     67  66  97 NE6       30.18R
$$
MNZ037-044-045-052-053-291300-
   East Central Minnesota

CITY           SKY/WX    TMP DP  RH WIND       PRES   REMARKS
PRINCETON      CLOUDY    70  68  94 N10       30.19R
MORA           CLOUDY    64  61  88 E6        30.24R
CAMBRIDGE      CLOUDY    72  66  83 NE5       30.19R
RUSH CITY      CLOUDY    67  64  88 NE5       30.22R
MOOSE LAKE     MOCLDY    63  61  94 SW8       30.23R
HINCKLEY       CLOUDY    64  64 100 N6        30.23R
CLOQUET        LGT RAIN  63  61  94 SE9       30.16F
MCGREGOR       CLOUDY    63  61  94 S20G28    30.14F
$$
MNZ071>073-080-081-089-090-097-098-291300-
   Southwest Minnesota

CITY           SKY/WX    TMP DP  RH WIND       PRES   REMARKS
MONTEVIDEO     CLEAR     66  66 100 SW7       30.11S
GRANITE FALLS  CLEAR     66  65  96 SE5       30.13R
CANBY          CLEAR     71  66  84 SW3       30.11R
MARSHALL       CLEAR     68  65  90 SW7       30.11R
REDWOOD FALLS  CLEAR     65  62  90 E5        30.12R
OLIVIA         CLEAR     66  63  88 NE8       30.14R
PIPESTONE      CLEAR     64  63  94 S3        30.13F
WINDOM         CLOUDY    66  63  88 S3        30.15R
WORTHINGTON    PTCLDY    66  64  93 S7        30.15S
JACKSON          N/A     64  63  94 S5        30.16R
TRACY          CLEAR     68  65  90 SW8       30.12R
SLAYTON        CLEAR     64  63  94 S9        30.14S
$$
MNZ065>067-074>077-082>085-091>093-291300-
   South Central Minnesota

CITY           SKY/WX    TMP DP  RH WIND       PRES   REMARKS
MANKATO        CLEAR     64  63  94 SE8       30.17R
NEW ULM          N/A     64  63  94 SE6       30.14R
ST JAMES       PTCLDY    57  57 100 CALM      30.16R
FAIRMONT       PTCLDY    63  61  93 SE6       30.17R
GLENCOE        CLEAR     66  66 100 CALM      30.17R
FARIBAULT      CLEAR     66  66 100 SE3       30.19R FOG
OWATONNA       MOCLDY    68  66  94 SE6       30.19R FOG
WASECA         CLEAR     63  61  94 E7        30.19R
ALBERT LEA     FOG       70  68  94 S5        30.19R VSB 1/4
$$
MNZ078>079-086>088-094>096-291300-
   Southeast Minnesota

CITY           SKY/WX    TMP DP  RH WIND       PRES   REMARKS
ROCHESTER      CLOUDY    65  65 100 S7        30.22R FOG
6HR MIN TEMP:  63; 6HR MAX TEMP:  69;

RED WING       CLEAR     70  68  94 CALM      30.18R
STANTON        CLEAR     68  66  94 CALM      30.17R
DODGE CENTER   FOG       64  64 100 SE5       30.21R VSB<1/4
WINONA         FOG       68  68 100 CALM      30.21R VSB 3/4
AUSTIN         CLOUDY    66  66 100 SE6       30.21R FOG
PRESTON        MOCLDY    65  63  95 S5        30.23R FOG
$$
ABBREVIATIONS USED IN REMARKS
   TC - TEMPERATURES IN CELSIUS
  WCI - WIND CHILL INDEX
   HX - HEAT INDEX
  VSB - VISIBILITY
$$



USA.gov is the U.S. government's official web portal to all federal, state and local government web resources and services.